Home > Time Zones > World Clock > Weather > China > Hefei > Past weeks

Flag for China Weather past 2 weeks in Hefei, Anhui, China

Now
81 °F

Sunny.


Feels Like: 86 °F
Forecast: 80 / 93 °F
Wind: 10 mph from South

Location: Hefei Airport

Current Time: Jul 30, 2015 at 8:18:00 AM

Latest Report: Jul 30, 2015 at 7:00 AM


Visibility: 10 mi

Pressure: 29.71 "Hg

Humidity: 84%

Dew point: 75 °F

Location of HefeiLocation

Historic Weather in Hefei — Graph

°F

Hefei temperature yesterday

Maximum temperature yesterday: 95 °F (at 2:00 PM)
Minimum temperature yesterday: 79 °F (at 4:00 AM)
Average temperature yesterday: 87 °F

Past Weeks' High & Low Weather Summary

 TemperatureHumidityPressure
High95 °F (Jul 29, 2:00 PM)100% (Jul 16, 3:00 AM)29.77 "Hg (Jul 16, 3:00 AM)
Low72 °F (Jul 17, 9:00 PM)50% (Jul 29, 2:00 PM)29.50 "Hg (Jul 16, 5:00 AM)
Average80 °F87%29.66 "Hg
* Reported Jul 15 7:00 AM — Jul 30 7:00 AM, Hefei, Weather by CustomWeather, © 2015

Note: Actual official high and low records may vary slightly from our data, if they occured in-between our weather recording intervals... More about our weather records

Advertising

Hefei weather history for previous 24 hours

 ConditionsComfort  
Time TempWeatherWind HumidityBarometerVisibility
7:00 AM
Thu, Jul 30
81 °FSunny.10 mph84%29.71 "Hg10 mi
6:00 AM79 °FSunny.8 mph84%29.71 "Hg10 mi
5:00 AM81 °FClear.10 mph84%29.71 "Hg10 mi
4:00 AM81 °FClear.8 mph89%29.68 "Hg10 mi
3:00 AM81 °FClear.3 mph84%29.68 "Hg10 mi
2:00 AM82 °FClear.10 mph79%29.68 "Hg10 mi
1:00 AM82 °FClear.8 mph84%29.71 "Hg10 mi
12:00 AM84 °FClear.10 mph79%29.71 "Hg10 mi
11:00 PM
Wed, Jul 29
84 °FClear.10 mph79%29.74 "Hg10 mi
10:00 PM84 °FClear.10 mph84%29.71 "Hg10 mi
9:00 PM86 °FClear.10 mph79%29.71 "Hg10 mi
8:00 PM88 °FClear.10 mph75%29.68 "Hg10 mi
7:00 PM90 °FSunny.10 mph71%29.65 "Hg10 mi
6:00 PM91 °FSunny.13 mph67%29.65 "Hg10 mi
5:00 PM93 °FSunny.13 mph59%29.65 "Hg10 mi
4:00 PM95 °FPassing clouds.10 mph56%29.65 "HgN/A
3:00 PM95 °FPassing clouds.13 mph53%29.68 "HgN/A
2:00 PM95 °FPassing clouds.10 mph50%29.71 "HgN/A
1:00 PM93 °FPassing clouds.8 mph53%29.71 "HgN/A
12:00 PM93 °FSunny.10 mph53%29.74 "Hg10 mi
11:00 AM93 °FSunny.10 mph56%29.74 "Hg10 mi
10:00 AM91 °FSunny.13 mph59%29.74 "Hg10 mi
9:00 AM90 °FPassing clouds.8 mph67%29.74 "HgN/A
8:00 AM86 °FSunny.10 mph70%29.74 "Hg10 mi
Weather by CustomWeather, © 2015

See weather overviewHow to use our weather pages